Terug naar catalogus

STARLINK-31713

ActiefCommunicatieVLEO
NORAD 59381·PAYLOAD·🇺🇸 United States

Gelanceerd Apr 2, 2024 vanaf Vandenberg Space Force Base

Loading…

Volgende Passages (komende 24 uur)

TLE

VersSource: CelesTrak SupGP

Epoch: Sep 15, 2026, 02:12 UTC

1 59381C 24062H   26258.09215278  .00012119  00000+0  35804-3 0  2581
2 59381  53.1578  94.6472 0001360  70.5810  75.9231 15.34385780    12

Volg STARLINK-31713 in realtime met AllMySat

Download on the App Store